RH
6 6 9 10 12 18 25 26 32 39 38 39 36 37 38 38 40 55 48 39 40 50 58 57 55 53 56 58 57 51 43 45 47 48 48 46 42 42 44 44 42 40 42 43 44 40 38 44 47
6 9 10 10 15 22 29 28 36 37 38 37 35 37 39 41 43 43 41 38 41 43 47 49 42 40 42 40 40 41 41 42 41 40 38 34 29 28 30 31 30 32 34 35 33 28 25 27 34
10 10 11 13 18 26 29 31 37 38 37 40 38 39 38 40 37 36 34 31 32 33 33 31 30 31 32 33 33 36 36 35 33 30 27 24 25 25 25 25 28 27 22 19 19 22 25 28 32
11 11 13 20 22 28 30 35 35 37 39 40 38 37 32 32 30 31 28 24 24 27 30 24 24 27 27 28 28 28 30 31 28 25 24 25 25 25 24 23 22 23 22 22 23 27 30 33 32
12 15 20 24 24 23 31 35 39 37 36 37 30 28 27 32 30 28 27 24 25 25 23 25 27 28 30 30 29 28 27 24 23 21 19 20 21 16 17 18 19 19 20 20 20 23 27 29 31
15 20 24 26 26 27 28 29 28 25 26 26 27 26 29 30 28 28 24 24 24 22 23 27 27 25 24 24 24 22 19 19 16 16 18 19 14 14 17 18 16 11 9 10 11 15 18 18 20
19 22 24 24 25 23 20 19 24 23 23 23 21 25 26 30 30 26 25 25 23 26 25 27 25 22 21 19 15 11 12 13 14 17 19 15 13 15 17 17 15 11 11 12 13 14 14 12 11
18 19 20 20 17 15 14 12 14 17 18 16 18 22 23 26 26 26 25 26 27 30 33 30 26 18 14 12 9 8 9 11 13 17 19 18 18 20 22 22 19 18 17 15 14 14 14 14 13
19 19 16 15 15 13 12 11 8 10 15 14 16 23 23 24 23 28 28 28 32 34 33 29 21 16 16 16 14 11 11 14 17 20 23 25 28 26 27 26 24 24 24 24 24 23 19 16 14
16 18 15 14 13 10 8 8 7 10 11 12 14 13 18 19 22 26 31 30 29 34 33 25 22 19 20 22 24 25 24 28 27 28 27 30 30 31 31 30 29 29 31 30 30 30 29 29 30
17 16 14 13 8 7 7 7 7 9 11 12 15 17 22 24 24 29 35 32 34 36 31 29 29 24 26 29 33 35 34 34 36 34 36 39 38 42 43 44 44 43 40 42 40 39 41 37 36
15 12 11 8 6 8 11 10 12 11 12 14 18 23 26 33 33 32 32 39 39 37 33 33 34 28 29 33 37 40 42 43 44 47 43 47 47 48 48 48 47 47 47 45 47 47 42 41 40
11 11 11 11 13 12 13 13 17 15 15 16 18 22 25 31 32 33 33 38 41 37 38 39 40 31 33 35 42 43 44 46 44 47 48 45 45 45 44 43 43 43 44 45 46 46 45 42 42
12 14 15 17 18 16 16 17 17 17 17 16 17 20 26 27 28 30 33 38 43 43 48 46 45 36 36 40 41 45 45 47 47 47 45 40 41 44 43 43 43 43 46 45 45 47 45 45 43
15 17 17 18 20 20 18 19 18 18 19 20 19 19 25 27 28 30 32 39 47 49 49 49 46 40 41 43 46 47 51 50 51 49 44 43 43 45 42 45 45 45 45 44 46 45 44 43 45
16 16 18 18 20 21 20 24 20 21 21 20 22 21 23 26 32 34 39 44 46 47 47 50 45 43 44 47 50 53 55 55 57 53 49 47 47 45 44 48 46 45 44 45 45 45 44 44 43
14 14 13 18 19 21 21 22 22 20 20 21 21 22 23 27 35 40 39 40 42 44 45 49 45 47 48 50 54 55 57 59 58 56 53 51 49 48 47 45 45 45 44 42 42 43 43 43 43
16 16 17 16 17 17 20 21 19 20 20 22 24 23 24 28 37 35 36 39 40 40 46 53 48 48 51 56 56 58 60 58 58 56 53 52 52 49 48 48 46 47 48 46 46 44 44 46 44
17 18 19 18 20 22 23 21 21 22 23 24 25 23 26 31 33 37 38 35 37 41 48 55 53 52 57 60 61 64 62 61 61 61 58 56 54 52 52 51 50 47 47 46 43 44 44 43 47
18 19 19 21 22 25 24 25 23 24 25 27 29 28 29 31 34 36 37 39 42 46 51 56 56 59 63 66 66 66 67 65 64 64 64 63 62 60 53 48 44 43 41 39 39 39 39 41 45
20 21 24 24 24 25 25 28 26 26 28 29 30 31 34 35 36 39 42 43 46 51 57 60 64 66 66 67 68 68 68 68 67 66 63 63 60 54 49 43 38 34 34 35 34 35 35 39 40
23 24 26 24 25 27 26 32 30 29 30 32 34 36 37 39 41 44 48 52 54 58 62 65 66 66 65 66 66 67 67 67 65 65 66 64 56 51 44 38 36 34 35 38 38 39 40 42 38
31 29 28 26 26 28 29 29 36 33 34 35 36 38 40 42 46 51 55 59 63 64 63 63 63 64 64 65 67 69 69 67 70 71 65 57 51 43 42 41 39 36 35 36 33 32 37 37 38
30 29 30 32 34 39 35 31 37 35 36 38 40 42 45 48 50 55 58 60 59 62 64 64 66 68 69 71 71 72 73 77 72 65 58 50 47 51 50 44 39 37 35 34 32 32 31 32 36
31 30 36 44 44 43 35 33 39 37 39 42 44 47 51 54 57 57 60 64 65 66 65 67 73 75 77 81 81 82 78 70 62 53 50 50 52 49 45 38 37 36 35 37 40 42 44 43 41
36 36 41 44 43 40 35 36 42 39 42 44 46 51 56 59 59 64 65 65 65 65 67 68 73 80 82 78 71 67 63 58 56 56 55 53 51 48 41 40 42 47 48 50 52 58 60 62 62
38 40 39 44 53 48 36 39 40 42 46 48 52 55 57 59 59 57 58 60 61 63 68 70 66 65 63 63 63 59 58 56 56 53 54 56 53 48 45 49 53 54 57 61 61 64 70 76 81
36 38 43 40 55 41 31 36 43 48 52 52 55 57 58 57 58 60 63 66 67 67 63 62 63 66 64 64 63 61 59 60 59 58 53 50 51 54 55 56 62 63 66 65 69 76 82 89 92
41 43 41 40 45 47 48 35 43 51 50 50 52 55 57 59 62 64 62 62 62 62 65 66 67 67 69 66 66 65 63 57 49 49 50 54 59 58 61 67 68 70 71 82 87 92 97 96 95
43 45 44 46 50 55 58 47 45 49 52 55 58 58 58 61 65 66 67 66 68 70 71 73 73 70 68 70 66 61 52 54 50 58 63 69 64 65 60 65 68 77 82 91 94 98 97 95 92